OBJECT C, 42827

Orbit data source: Space-Track

You're viewing an uncataloged RSO

Recently launched and/or uncataloged RSOs may have evolving metadata. Metadata may include the following, but is not limited to: Owner, Manufacturer, Bus, Motor, and Mission.

OBJECT C, 42827 is a satellite in SSO that was launched on Fri, 14 Jul 2017 UTC via a SOYUZ-2-1A launch vehicle from the Tyuratam Missile And Space Complex (TTMTR). Unknown objects in Earth's orbit typically refer to objects detected orbiting the Earth but have not yet been identified or cataloged. These objects could be anything from previously untracked satellites, spent rocket stages, debris from satellite collisions, or even natural meteoroids temporarily captured by Earth's gravity.

Loading next visibility...
Identifier
42827, 2017-042C
Orbit
SSO
Country
Flag of TBDTBD
Related business
None
Manufacturer
Unknown
Mission
Non-operational Amateur Technology
Bus & Motor
Unknown
Mass
Unknown
Launch date (UTC)
2017-07-14 (9 years ago)
Launch vehicle
SOYUZ-2-1A
Launch site
Tyuratam Missile And Space Complex (TTMTR)
Object type
Unknown
Shape & HBR
Box, 0.2 m
Radar Cross Section
0.035 m², Medium (>0.1 m² and < 1m²)

Expand to show TLE details & history
Last TLE update: 15 hours ago

TLE from 15 hours ago
0 OBJECT C
1 42827U 17042C   26263.92899349  .00009047  00000-0  33268-3 0  9994
2 42827  97.4168  78.7568 0009526  96.1775 264.0550 15.28073731502442
Epoch: 2026-09-20T22:17Z
TLE epoch observation values (Epoch: 2026-09-20T22:17:45.037Z)
Latitude
-0.00003°
Longitude
104.50302°
Altitude
485.355 km
Speed
7.622 km/s
True Right ascension
05h 15m 01s
True Declination
0° 00' 00"
Sunlit
Object was in daylight at epoch
Visualization orbit readout
Latitude
Unknown
Longitude
Unknown
Altitude
Unknown
Speed
Unknown
Apparent Right ascension
Unknown
Apparent Declination
Unknown
Sunlit
N/A
Visualization observer readout
Local Sidereal Time
06:00:25
Azimuth
Unknown
Elevation
Unknown
Doppler factor
Unknown
Orbital elements
Apogee altitude
485.058 km
Perigee altitude
471.995 km
Semi-major axis
6,856.664 km
Eccentricity
0.00095
Inclination
97.4168°
RAAN
78.7568°
Arg. of periapsis
96.1775°
True anomaly
263.94644°
Mean anomaly
264.055°
Eccentric anomaly
264.00072°
Mean motion
3.82273 °/min
Orbital period
94.17 mins
BSTAR
0.00033268
Loading maneuver chart data...
Computing Atmospheric mass density...

Documentation

Showing up to 5 results
|